This is the latest recevied weather packets stored in our database for station/object N8VDS-10. If no packets are shown the sender has not sent any weather packets the latest 10 day(s).
| Time | Temp. | Humidity | Pressure | Rain* | Wind** | Luminosity | Snow |
|---|---|---|---|---|---|---|---|
| 1777424740 | 13.33° C | 69% | 1016.4 hPa | 0 mm | - | 0 W/m² | - |
| 1777418369 | 15.56° C | 63% | 1015.9 hPa | 0 mm | - | 74 W/m² | - |
| 1777414726 | 15.56° C | 63% | 1015.5 hPa | 0 mm | - | 261 W/m² | - |
| 1777414423 | 15° C | 64% | 1015.1 hPa | 0 mm | - | 287 W/m² | - |
| 1777409880 | 15° C | 66% | 1015.2 hPa | 0 mm | - | 400 W/m² | - |
| 1777408663 | 13.89° C | 69% | 1015.2 hPa | 0 mm | - | 272 W/m² | - |
| 1777408360 | 13.89° C | 70% | 1015.1 hPa | 0 mm | - | 241 W/m² | - |
| 1777407152 | 13.89° C | 69% | 1015.2 hPa | 0 mm | - | 266 W/m² | - |
| 1777406542 | 13.89° C | 69% | 1015 hPa | 0 mm | - | 315 W/m² | - |
| 1777406238 | 13.89° C | 69% | 1014.8 hPa | 0 mm | - | 292 W/m² | - |
| 1777405027 | 13.89° C | 72% | 1014.8 hPa | 0 mm | - | 326 W/m² | - |
| 1777404114 | 13.89° C | 71% | 1015.2 hPa | 0 mm | - | 270 W/m² | - |
| 1777403810 | 13.89° C | 71% | 1014.9 hPa | 0 mm | - | 251 W/m² | - |
| 1777403509 | 13.89° C | 71% | 1014.9 hPa | 0 mm | - | 233 W/m² | - |
| 1777402294 | 13.33° C | 74% | 1015 hPa | 0 mm | - | 205 W/m² | - |
| 1777401686 | 13.33° C | 74% | 1014.8 hPa | 0 mm | - | 157 W/m² | - |
| 1777401384 | 13.33° C | 75% | 1014.9 hPa | 0 mm | - | 211 W/m² | - |
| 1777400775 | 13.33° C | 75% | 1014.6 hPa | 0 mm | - | 225 W/m² | - |
| 1777400168 | 13.33° C | 75% | 1014.7 hPa | 0 mm | - | 247 W/m² | - |
| 1777399562 | 13.33° C | 76% | 1014.4 hPa | 0 mm | - | 226 W/m² | - |
| 1777399259 | 13.33° C | 75% | 1014.4 hPa | 0 mm | - | 193 W/m² | - |
| 1777398350 | 13.33° C | 74% | 1014.1 hPa | 0 mm | - | 180 W/m² | - |
| 1777397743 | 13.89° C | 74% | 1014.2 hPa | 0 mm | - | 218 W/m² | - |
| 1777397440 | 13.89° C | 74% | 1014.4 hPa | 0 mm | - | 260 W/m² | - |
| 1777397136 | 13.89° C | 74% | 1014.2 hPa | 0 mm | - | 207 W/m² | - |
* Rain latest hour (hover to see other rain measurements)
** Current wind speed in m/s (hover to see current wind gust speed)